Location: Ballingbuur
(53.0000°N, 5.7667°E)
Time: 21:28:53
(UTC+00:00)

FALCON 9 DEB - Pass Details

Date: 29 November 2020
Orbit: 373 x 391 km, 53.0° (Epoch: 24 January)

Event Time Altitude Azimuth Distance (km) Brightness Sun altitude
Exits shadow 05:52:43 14° 240° (WSW) 1,227 5.0 -13.1°
Maximum altitude 05:55:22 59° 161° (SSE) 464 3.4 -12.7°
Drops below altitude 10° 05:58:34 10° 81° (E) 1,452 6.8 -12.3°
Sets 06:00:40 0° 78° (ENE) 2,313 7.9 -12.0°
